Weather History for KRSV - April, 2013

Change the Weather History Date:

Saturday, April 27, 2013

  Actual Average (KLWV) Record (KLWV)
Temperature  
Mean Temperature 54 °F 60 °F  
Max Temperature 60 °F 71 °F 83 °F (2014)
Min Temperature 49 °F 50 °F 38 °F (2015)
Degree Days  
Heating Degree Days 10 6  
Month to date heating degree days 279  
Since 1 July heating degree days 4576  
Cooling Degree Days 0 1  
Month to date cooling degree days 21  
Year to date cooling degree days 23  
Growing Degree Days 4 (Base 50)    
Moisture  
Dew Point 50 °F    
Average Humidity 82    
Maximum Humidity 92    
Minimum Humidity 66    
Precipitation  
Precipitation 0.01 in 0.18 in 2.42 in (2011)
Month to date precipitation 3.51  
Year to date precipitation 11.33  
Sea Level Pressure  
Sea Level Pressure 30.16 in    
Wind  
Wind Speed 5 mph (East)    
Max Wind Speed 13 mph    
Max Gust Speed -    
Visibility 8 miles    
Events Rain    
T = Trace of Precipitation, MM = Missing Value Source: NWS Daily Summary

Daily Weather History Graph

Daily Weather History Graph

Search for Another Location

Airport or City:

Trip Planner

Search our weather history database for the weather conditions in past years. The results will help you decide how hot, cold, wet, or windy it might be!

Date:

Astronomy

Apr. 27, 2013 Rise Set
Actual Time 5:57 AM CDT 7:39 PM CDT
Civil Twilight 5:28 AM CDT 8:08 PM CDT
Nautical Twilight 4:54 AM CDT 8:42 PM CDT
Astronomical Twilight 4:17 AM CDT 9:19 PM CDT
Moon 10:07 PM CDT (4/27) 7:16 AM CDT (4/27)
Length of Visible Light 14h 39m
Length of Day
13h 42m
Waning Gibbous, 95% of the Moon is Illuminated
Apr 27
Waning Gibbous
May 2
Last Quarter
May 9
New
May 17
First Quarter
May 24
Full

Hourly Weather History & Observations

Time (CDT) Temp. Dew Point Humidity Pressure Visibility Wind Dir Wind Speed Gust Speed Precip Events Conditions
12:15 AM 51.8 °F 47.1 °F 84% 30.34 in 10.0 mi Calm Calm - N/A   Mostly Cloudy
12:35 AM 50.7 °F 46.9 °F 87% 30.34 in 10.0 mi Calm Calm - N/A   Overcast
12:55 AM 50.2 °F 46.9 °F 89% 30.34 in 10.0 mi Calm Calm - N/A   Overcast
1:15 AM 50.2 °F 46.8 °F 88% 30.33 in 10.0 mi Calm Calm - N/A   Overcast
1:35 AM 50.5 °F 46.4 °F 86% 30.33 in 10.0 mi Calm Calm - N/A   Overcast
1:55 AM 50.5 °F 47.1 °F 88% 30.31 in 10.0 mi Calm Calm - N/A   Overcast
2:15 AM 49.5 °F 45.9 °F 87% 30.31 in 10.0 mi Calm Calm - N/A   Overcast
2:35 AM 50.2 °F 45.9 °F 85% 30.30 in 10.0 mi Calm Calm - N/A   Scattered Clouds
2:55 AM 49.1 °F 45.9 °F 89% 30.30 in 10.0 mi Calm Calm - N/A   Mostly Cloudy
3:15 AM 49.6 °F 46.0 °F 87% 30.29 in 10.0 mi SE 3.5 mph - N/A   Overcast
3:35 AM 50.0 °F 46.4 °F 87% 30.29 in 10.0 mi SSE 4.6 mph - N/A   Overcast
3:55 AM 50.2 °F 46.6 °F 87% 30.29 in 10.0 mi Calm Calm - N/A   Overcast
4:15 AM 50.4 °F 46.6 °F 87% 30.29 in 10.0 mi Calm Calm - N/A   Overcast
4:35 AM 50.5 °F 46.6 °F 86% 30.29 in 10.0 mi NNE 3.5 mph - N/A   Overcast
4:55 AM 51.1 °F 47.3 °F 87% 30.29 in 10.0 mi NNE 4.6 mph - N/A   Overcast
5:15 AM 51.4 °F 47.8 °F 87% 30.26 in 10.0 mi NE 6.9 mph - N/A   Overcast
6:35 AM 52.0 °F 47.3 °F 84% 30.24 in 10.0 mi NE 4.6 mph - N/A   Overcast
6:55 AM 52.2 °F 47.7 °F 85% 30.25 in 10.0 mi NNW 4.6 mph - N/A   Overcast
7:15 AM 52.9 °F 48.2 °F 84% 30.25 in 10.0 mi Calm Calm - N/A   Overcast
7:35 AM 53.6 °F 47.8 °F 81% 30.25 in 10.0 mi Calm Calm - N/A   Overcast
7:55 AM 54.7 °F 47.8 °F 78% 30.26 in 10.0 mi Calm Calm - N/A   Overcast
8:15 AM 54.5 °F 47.8 °F 78% 30.25 in 10.0 mi ESE 3.5 mph - N/A Rain Light Rain
8:35 AM 53.8 °F 46.6 °F 77% 30.24 in 10.0 mi East 8.1 mph - N/A   Overcast
8:55 AM 54.1 °F 46.9 °F 77% 30.23 in 10.0 mi East 8.1 mph - N/A   Overcast
9:15 AM 55.4 °F 46.2 °F 71% 30.22 in 10.0 mi East 8.1 mph - N/A   Overcast
9:35 AM 56.3 °F 46.4 °F 69% 30.22 in 10.0 mi East 9.2 mph - N/A   Overcast
9:55 AM 57.4 °F 46.0 °F 66% 30.22 in 10.0 mi East 10.4 mph - N/A   Overcast
10:15 AM 56.7 °F 46.0 °F 68% 30.22 in 10.0 mi ESE 12.7 mph - N/A   Overcast
10:35 AM 56.7 °F 46.6 °F 69% 30.23 in 10.0 mi ESE 12.7 mph - N/A   Overcast
10:55 AM 56.8 °F 47.7 °F 71% 30.22 in 10.0 mi ESE 11.5 mph - N/A   Overcast
11:15 AM 56.7 °F 48.0 °F 73% 30.22 in 10.0 mi ESE 9.2 mph - N/A   Overcast
11:35 AM 56.3 °F 48.0 °F 74% 30.23 in 10.0 mi SE 8.1 mph - N/A   Overcast
11:55 AM 56.1 °F 48.4 °F 75% 30.21 in 10.0 mi ESE 8.1 mph - N/A   Overcast
12:15 PM 55.8 °F 48.4 °F 76% 30.20 in 10.0 mi ESE 6.9 mph - N/A   Overcast
12:35 PM 57.0 °F 48.9 °F 74% 30.19 in 10.0 mi East 5.8 mph - N/A   Overcast
12:55 PM 57.7 °F 49.3 °F 73% 30.18 in 10.0 mi ENE 8.1 mph - N/A   Overcast
1:15 PM 58.5 °F 49.6 °F 72% 30.16 in 10.0 mi East 8.1 mph - N/A   Overcast
1:35 PM 58.6 °F 49.3 °F 71% 30.15 in 10.0 mi East 12.7 mph - N/A   Overcast
1:55 PM 59.0 °F 49.5 °F 71% 30.15 in 10.0 mi East 11.5 mph - N/A   Overcast
2:15 PM 59.4 °F 49.8 °F 71% 30.14 in 10.0 mi East 10.4 mph - N/A   Overcast
2:35 PM 60.1 °F 50.2 °F 70% 30.14 in 10.0 mi ESE 11.5 mph - N/A   Overcast
2:55 PM 59.9 °F 50.4 °F 71% 30.13 in 10.0 mi ESE 10.4 mph - N/A   Overcast
3:15 PM 60.1 °F 50.7 °F 71% 30.12 in 10.0 mi ESE 9.2 mph - N/A   Overcast
3:35 PM 60.3 °F 51.3 °F 72% 30.10 in 10.0 mi East 9.2 mph - N/A   Overcast
3:55 PM 59.5 °F 51.1 °F 74% 30.10 in 10.0 mi East 10.4 mph - N/A   Overcast
4:15 PM 59.5 °F 51.3 °F 74% 30.09 in 10.0 mi East 8.1 mph - N/A   Overcast
4:35 PM 59.5 °F 51.4 °F 75% 30.08 in 10.0 mi East 8.1 mph - N/A   Overcast
4:55 PM 59.2 °F 51.8 °F 77% 30.08 in 7.0 mi East 10.4 mph - N/A Rain Light Rain
5:15 PM 58.5 °F 52.9 °F 82% 30.07 in 5.0 mi East 12.7 mph - N/A   Haze
5:35 PM 58.1 °F 53.8 °F 86% 30.06 in 4.0 mi East 8.1 mph - N/A   Overcast
5:55 PM 58.1 °F 54.0 °F 86% 30.05 in 7.0 mi East 9.2 mph - N/A   Overcast
6:15 PM 58.1 °F 54.0 °F 86% 30.04 in 10.0 mi East 9.2 mph - N/A   Overcast
6:35 PM 57.7 °F 53.8 °F 87% 30.03 in 10.0 mi East 10.4 mph - N/A Rain Light Rain
6:55 PM 57.6 °F 54.1 °F 88% 30.03 in 7.0 mi East 9.2 mph - N/A   Light Drizzle
7:15 PM 57.4 °F 54.0 °F 88% 30.02 in 10.0 mi East 8.1 mph - N/A   Overcast
7:35 PM 57.4 °F 54.1 °F 89% 30.01 in 7.0 mi East 8.1 mph - N/A   Light Drizzle
7:55 PM 57.2 °F 54.1 °F 89% 30.01 in 3.0 mi East 8.1 mph - N/A Rain Light Rain
8:15 PM 57.2 °F 54.1 °F 89% 30.01 in 7.0 mi East 9.2 mph - N/A   Overcast
8:35 PM 57.2 °F 54.5 °F 91% 30.00 in 4.0 mi East 9.2 mph - N/A   Overcast
8:55 PM 57.2 °F 54.3 °F 90% 30.00 in 3.0 mi East 8.1 mph - N/A   Overcast
9:15 PM 57.2 °F 54.5 °F 91% 29.99 in 3.0 mi East 9.2 mph - N/A   Overcast
9:35 PM 57.0 °F 54.5 °F 91% 29.98 in 3.0 mi East 6.9 mph - N/A   Overcast
9:55 PM 57.0 °F 54.5 °F 91% 29.99 in 3.0 mi East 9.2 mph - N/A   Overcast
10:15 PM 57.2 °F 54.7 °F 91% 29.98 in 2.5 mi East 8.1 mph - N/A   Overcast
10:35 PM 57.2 °F 54.7 °F 91% 29.98 in 3.0 mi East 8.1 mph - N/A   Overcast
10:55 PM 57.2 °F 54.9 °F 92% 29.97 in 2.5 mi East 9.2 mph - N/A   Overcast
11:15 PM 57.2 °F 54.9 °F 92% 29.95 in 2.5 mi East 8.1 mph - N/A   Overcast
11:35 PM 57.2 °F 54.9 °F 92% 29.94 in 1.8 mi East 6.9 mph - 0.01 in   Overcast
11:55 PM 57.2 °F 54.7 °F 91% 29.94 in 2.5 mi East 8.1 mph - 0.01 in   Overcast